Location: Pian di Sc�
(43.6333°N, 11.5500°E)
Time: 16:56:28
(UTC+00:00)

CZ-2D R/B - Pass Details

Date: 07 August 2020
Orbit: 792 x 845 km, 98.7° (Epoch: 17 September)

Event Time Altitude Azimuth Distance (km) Brightness Sun altitude
Rises 00:29:52 0° 18° (NNE) 3,409 6.6 -27.9°
Reaches altitude 10° 00:32:18 10° 23° (NNE) 2,473 5.6 -27.8°
Maximum altitude 00:37:41 54° 100° (E) 1,020 2.6 -27.4°
Enters shadow 00:38:05 53° 117° (ESE) 1,034 2.5 -27.4°
